This is the latest recevied weather packets stored in our database for station/object KJ7HSW. If no packets are shown the sender has not sent any weather packets the latest 10 day(s).
| Time | Temp. | Humidity | Pressure | Rain* | Wind** | Luminosity | Snow |
|---|---|---|---|---|---|---|---|
| 1777977044 | 10° C | 91% | 1012.3 hPa | 0 mm | - | 0 W/m² | - |
| 1777976741 | 10.56° C | 90% | 1012.3 hPa | 0 mm | - | 0 W/m² | - |
| 1777976439 | 10.56° C | 90% | 1012.3 hPa | 0 mm | - | 0 W/m² | - |
| 1777976137 | 10.56° C | 90% | 1012.4 hPa | 0 mm | - | 0 W/m² | - |
| 1777975833 | 10.56° C | 89% | 1012.3 hPa | 0 mm | - | 0 W/m² | - |
| 1777975530 | 10.56° C | 89% | 1012.3 hPa | 0 mm | - | 0 W/m² | - |
| 1777975227 | 10.56° C | 89% | 1012.2 hPa | 0 mm | - | 0 W/m² | - |
| 1777974923 | 11.11° C | 89% | 1012.3 hPa | 0 mm | - | 0 W/m² | - |
| 1777974620 | 11.11° C | 88% | 1012.3 hPa | 0 mm | - | 0 W/m² | - |
| 1777974317 | 11.11° C | 87% | 1012.3 hPa | 0 mm | - | 0 W/m² | - |
| 1777974013 | 11.67° C | 86% | 1011.9 hPa | 0 mm | - | 0 W/m² | - |
| 1777973709 | 11.67° C | 86% | 1012 hPa | 0 mm | - | 0 W/m² | - |
| 1777973407 | 11.67° C | 85% | 1012.1 hPa | 0 mm | - | 0 W/m² | - |
| 1777973104 | 11.67° C | 84% | 1012.1 hPa | 0 mm | - | 0 W/m² | - |
| 1777972802 | 12.22° C | 82% | 1012.1 hPa | 0 mm | - | 0 W/m² | - |
| 1777972499 | 12.78° C | 81% | 1011.9 hPa | 0 mm | - | 0 W/m² | - |
| 1777972197 | 12.22° C | 81% | 1011.9 hPa | 0 mm | - | 0 W/m² | - |
| 1777971895 | 12.22° C | 82% | 1011.8 hPa | 0 mm | - | 0 W/m² | - |
| 1777971592 | 12.22° C | 84% | 1011.9 hPa | 0 mm | - | 0 W/m² | - |
| 1777971290 | 12.22° C | 85% | 1011.8 hPa | 0 mm | - | 0 W/m² | - |
| 1777970988 | 11.67° C | 86% | 1011.8 hPa | 0 mm | - | 0 W/m² | - |
| 1777970686 | 12.22° C | 85% | 1011.7 hPa | 0 mm | - | 0 W/m² | - |
| 1777970383 | 12.22° C | 83% | 1011.5 hPa | 0 mm | - | 0 W/m² | - |
| 1777970080 | 12.78° C | 83% | 1011.8 hPa | 0 mm | - | 0 W/m² | - |
| 1777969777 | 12.78° C | 82% | 1011.7 hPa | 0 mm | - | 0 W/m² | - |
* Rain latest hour (hover to see other rain measurements)
** Current wind speed in m/s (hover to see current wind gust speed)